STARLINK-1941 (46793 NORAD) Tracking and Keplerian Element Data

This shows tracking and keplerian element data for the satellite.

Feedback or suggestion? Click here.




ElementValue
Catalog46793
NameSTARLINK-1941
Epoch Orbit1352
Epoch Day18.25002315
Epoch Year2021
RAAN105.3977
Inclination53.0508
Eccentricity0.0001436
Argument of Perigee86.8534
Mean Anonmoly51.8762
Mean Motion15.09368129
Decay Rate-0.01096233
L11 46793U 20074BG 21018.25002315 -.01096233 00000-0 -73469-1 0 9998
L22 46793 53.0508 105.3977 0001436 86.8534 51.8762 15.09368129 13526

Live tracking and technical data element details for STARLINK-1941 (NORAD 46793). STARLINK-1941 can be tracked NOW for your location showing map with azimuth and elevation plus other details from your city location.

Track the satellite on the map from your city or location and see movement details for azimuth, elevation, latitude, longitude, range, height, and movement on the map or in text.







IsCatalogInMostPopularTable: catalog: 46793, numindb: 29
Update: records affected: 1



GetName: 46793 STARLINK-1941

Hit Count: updated at: Mon, 18 Jan 2021 16:20:06 GMT